Time,TemperatureF,DewpointF,PressureIn,WindDirection,WindDirectionDegrees,WindSpeedMPH,WindSpeedGustMPH,Humidity,HourlyPrecipIn,Conditions,Clouds,dailyrainin,SoftwareType,DateUTC
2013-10-05 00:00:00,69.9,65.9,30.13,SSW,200,0.0,9.0,87,0.00,,,0.02,Wunderground v.1.15,2013-10-05 04:00:00,
2013-10-05 00:05:00,69.7,65.7,30.13,SSW,200,0.0,9.0,87,0.00,,,0.00,Wunderground v.1.15,2013-10-05 04:05:00,
2013-10-05 00:10:00,69.5,65.8,30.13,SSW,200,0.0,9.0,88,0.00,,,0.00,Wunderground v.1.15,2013-10-05 04:10:00,
2013-10-05 00:15:00,69.4,65.7,30.13,SSW,200,0.0,9.0,88,0.00,,,0.00,Wunderground v.1.15,2013-10-05 04:15:00,
2013-10-05 00:20:00,69.3,65.6,30.13,SSW,200,0.0,9.0,88,0.00,,,0.00,Wunderground v.1.15,2013-10-05 04:20:00,
2013-10-05 00:25:00,69.2,65.8,30.13,SSW,200,0.0,9.0,89,0.00,,,0.00,Wunderground v.1.15,2013-10-05 04:25:00,
2013-10-05 00:30:00,69.2,65.8,30.13,SSW,200,0.0,9.0,89,0.00,,,0.00,Wunderground v.1.15,2013-10-05 04:30:00,
2013-10-05 00:40:00,69.2,65.8,30.13,SSW,200,0.0,9.0,89,0.00,,,0.00,Wunderground v.1.15,2013-10-05 04:40:00,
2013-10-05 00:45:00,69.3,65.9,30.13,SSW,200,0.0,9.0,89,0.00,,,0.00,Wunderground v.1.15,2013-10-05 04:45:00,
2013-10-05 00:50:00,69.3,65.9,30.13,SSW,204,0.0,9.0,89,0.00,,,0.00,Wunderground v.1.15,2013-10-05 04:50:00,
2013-10-05 00:55:00,69.4,66.0,30.13,SSW,204,0.0,9.0,89,0.00,,,0.00,Wunderground v.1.15,2013-10-05 04:55:00,
2013-10-05 01:00:00,69.4,66.0,30.13,SSW,204,0.0,9.0,89,0.00,,,0.00,Wunderground v.1.15,2013-10-05 05:00:00,
2013-10-05 01:05:00,69.2,65.8,30.13,SSW,204,0.0,9.0,89,0.00,,,0.00,Wunderground v.1.15,2013-10-05 05:05:00,
2013-10-05 01:10:00,69.1,65.7,30.13,SSW,204,0.0,9.0,89,0.00,,,0.00,Wunderground v.1.15,2013-10-05 05:10:00,
2013-10-05 01:15:00,69.0,65.9,30.13,SSW,204,0.0,9.0,90,0.00,,,0.00,Wunderground v.1.15,2013-10-05 05:15:00,
2013-10-05 01:20:00,68.9,65.8,30.13,SSW,204,0.0,9.0,90,0.00,,,0.00,Wunderground v.1.15,2013-10-05 05:20:00,
2013-10-05 01:25:00,68.9,65.8,30.13,SSW,204,0.0,9.0,90,0.00,,,0.00,Wunderground v.1.15,2013-10-05 05:25:00,
2013-10-05 01:30:00,68.8,65.7,30.13,SSW,204,0.0,9.0,90,0.00,,,0.00,Wunderground v.1.15,2013-10-05 05:30:00,
2013-10-05 01:35:00,68.8,66.1,30.13,SSW,204,0.0,9.0,91,0.00,,,0.00,Wunderground v.1.15,2013-10-05 05:35:00,
2013-10-05 01:40:00,68.8,66.1,30.13,SSW,204,0.0,9.0,91,0.00,,,0.00,Wunderground v.1.15,2013-10-05 05:40:00,
2013-10-05 01:45:00,68.9,65.8,30.13,SSW,204,0.0,9.0,90,0.00,,,0.00,Wunderground v.1.15,2013-10-05 05:45:00,
2013-10-05 01:50:00,68.9,65.8,30.13,SSW,204,0.0,9.0,90,0.00,,,0.00,Wunderground v.1.15,2013-10-05 05:50:00,
2013-10-05 01:55:00,68.7,65.6,30.13,SSW,204,0.0,9.0,90,0.00,,,0.00,Wunderground v.1.15,2013-10-05 05:55:00,
2013-10-05 02:00:00,68.6,65.9,30.13,SSW,204,0.0,9.0,91,0.00,,,0.00,Wunderground v.1.15,2013-10-05 06:00:00,
2013-10-05 02:05:00,68.4,65.7,30.13,SSW,204,0.0,9.0,91,0.00,,,0.00,Wunderground v.1.15,2013-10-05 06:05:00,
2013-10-05 02:10:00,68.3,65.9,30.13,SSW,204,0.0,9.0,92,0.00,,,0.00,Wunderground v.1.15,2013-10-05 06:10:00,
2013-10-05 02:15:00,68.3,65.9,30.13,SSW,204,0.0,9.0,92,0.00,,,0.00,Wunderground v.1.15,2013-10-05 06:15:00,
2013-10-05 02:20:00,68.3,65.9,30.13,SSW,204,0.0,9.0,92,0.00,,,0.00,Wunderground v.1.15,2013-10-05 06:20:00,
2013-10-05 02:25:00,68.2,65.8,30.13,SSW,204,0.0,9.0,92,0.00,,,0.00,Wunderground v.1.15,2013-10-05 06:25:00,
2013-10-05 02:30:00,68.1,65.7,30.13,SSW,204,0.0,9.0,92,0.00,,,0.00,Wunderground v.1.15,2013-10-05 06:30:00,
2013-10-05 02:35:00,68.0,65.6,30.13,SSW,204,0.0,9.0,92,0.00,,,0.00,Wunderground v.1.15,2013-10-05 06:35:00,
2013-10-05 02:40:00,68.0,65.9,30.13,SSW,204,0.0,9.0,93,0.00,,,0.00,Wunderground v.1.15,2013-10-05 06:40:00,
2013-10-05 02:45:00,67.9,65.8,30.13,SSW,204,0.0,9.0,93,0.00,,,0.00,Wunderground v.1.15,2013-10-05 06:45:00,
2013-10-05 02:50:00,68.0,65.9,30.13,SSW,204,0.0,9.0,93,0.00,,,0.00,Wunderground v.1.15,2013-10-05 06:50:00,
2013-10-05 02:55:00,68.0,65.9,30.13,SSW,204,0.0,9.0,93,0.00,,,0.00,Wunderground v.1.15,2013-10-05 06:55:00,
2013-10-05 03:00:00,68.1,66.0,30.13,SSW,204,0.0,9.0,93,0.00,,,0.00,Wunderground v.1.15,2013-10-05 07:00:00,
2013-10-05 03:10:00,68.1,66.0,30.13,SSW,204,0.0,9.0,93,0.00,,,0.00,Wunderground v.1.15,2013-10-05 07:10:00,
2013-10-05 03:15:00,68.0,65.9,30.13,SSW,204,0.0,9.0,93,0.00,,,0.00,Wunderground v.1.15,2013-10-05 07:15:00,
2013-10-05 03:20:00,68.1,66.0,30.13,SSW,204,0.0,9.0,93,0.00,,,0.00,Wunderground v.1.15,2013-10-05 07:20:00,
2013-10-05 03:25:00,68.1,65.7,30.13,SSW,204,0.0,9.0,92,0.00,,,0.00,Wunderground v.1.15,2013-10-05 07:25:00,
2013-10-05 03:30:00,68.0,65.6,30.12,SSW,204,0.0,9.0,92,0.00,,,0.00,Wunderground v.1.15,2013-10-05 07:30:00,
2013-10-05 03:35:00,67.8,65.7,30.12,SSW,204,0.0,9.0,93,0.00,,,0.00,Wunderground v.1.15,2013-10-05 07:35:00,
2013-10-05 03:40:00,67.7,65.6,30.12,SSW,204,0.0,9.0,93,0.00,,,0.00,Wunderground v.1.15,2013-10-05 07:40:00,
2013-10-05 03:45:00,67.7,65.6,30.12,SSW,204,0.0,9.0,93,0.00,,,0.00,Wunderground v.1.15,2013-10-05 07:45:00,
2013-10-05 03:50:00,67.8,65.7,30.12,SSW,204,0.0,9.0,93,0.00,,,0.00,Wunderground v.1.15,2013-10-05 07:50:00,
2013-10-05 03:55:00,67.9,65.8,30.13,SSW,204,0.0,9.0,93,0.00,,,0.00,Wunderground v.1.15,2013-10-05 07:55:00,
2013-10-05 04:00:00,67.8,65.7,30.13,SSW,204,0.0,9.0,93,0.00,,,0.00,Wunderground v.1.15,2013-10-05 08:00:00,
2013-10-05 04:05:00,67.7,65.6,30.12,SSW,204,0.0,9.0,93,0.00,,,0.00,Wunderground v.1.15,2013-10-05 08:05:00,
2013-10-05 04:10:00,67.6,65.5,30.13,SSW,204,0.0,9.0,93,0.00,,,0.00,Wunderground v.1.15,2013-10-05 08:10:00,
2013-10-05 04:15:00,67.4,65.3,30.13,SSW,204,0.0,9.0,93,0.00,,,0.00,Wunderground v.1.15,2013-10-05 08:15:00,
2013-10-05 04:20:00,67.3,65.5,30.13,SSW,204,0.0,9.0,94,0.00,,,0.00,Wunderground v.1.15,2013-10-05 08:20:00,
2013-10-05 04:25:00,67.2,65.4,30.13,SSW,204,0.0,9.0,94,0.00,,,0.00,Wunderground v.1.15,2013-10-05 08:25:00,
2013-10-05 04:30:00,67.2,65.4,30.13,SSW,204,0.0,9.0,94,0.00,,,0.00,Wunderground v.1.15,2013-10-05 08:30:00,
2013-10-05 04:35:00,67.2,65.4,30.13,SSW,204,0.0,9.0,94,0.00,,,0.00,Wunderground v.1.15,2013-10-05 08:35:00,
2013-10-05 04:45:00,67.1,65.3,30.13,SSW,204,0.0,9.0,94,0.00,,,0.00,Wunderground v.1.15,2013-10-05 08:45:00,
2013-10-05 04:50:00,67.0,65.2,30.13,SSW,204,0.0,9.0,94,0.00,,,0.00,Wunderground v.1.15,2013-10-05 08:50:00,
2013-10-05 04:55:00,67.0,65.2,30.13,SSW,204,0.0,9.0,94,0.00,,,0.00,Wunderground v.1.15,2013-10-05 08:55:00,
2013-10-05 05:00:00,66.9,65.1,30.13,SSW,204,0.0,9.0,94,0.00,,,0.00,Wunderground v.1.15,2013-10-05 09:00:00,
2013-10-05 05:05:00,66.9,65.1,30.13,SSW,204,0.0,9.0,94,0.00,,,0.00,Wunderground v.1.15,2013-10-05 09:05:00,
2013-10-05 05:15:00,67.0,65.2,30.13,SSW,204,0.0,9.0,94,0.00,,,0.00,Wunderground v.1.15,2013-10-05 09:15:00,
2013-10-05 05:20:00,67.0,65.2,30.13,SSW,204,0.0,9.0,94,0.00,,,0.00,Wunderground v.1.15,2013-10-05 09:20:00,
2013-10-05 05:25:00,67.0,65.2,30.13,SSW,204,0.0,9.0,94,0.00,,,0.00,Wunderground v.1.15,2013-10-05 09:25:00,
2013-10-05 05:30:00,67.0,65.2,30.13,SSW,204,0.0,9.0,94,0.00,,,0.00,Wunderground v.1.15,2013-10-05 09:30:00,
2013-10-05 05:35:00,67.0,65.2,30.13,SSW,204,0.0,9.0,94,0.00,,,0.00,Wunderground v.1.15,2013-10-05 09:35:00,
2013-10-05 05:40:00,67.1,65.3,30.13,SSW,204,0.0,9.0,94,0.00,,,0.00,Wunderground v.1.15,2013-10-05 09:40:00,
2013-10-05 05:45:00,67.1,65.0,30.13,SSW,204,0.0,9.0,93,0.00,,,0.00,Wunderground v.1.15,2013-10-05 09:45:00,
2013-10-05 05:55:00,67.2,65.4,30.13,SSW,204,0.0,9.0,94,0.00,,,0.00,Wunderground v.1.15,2013-10-05 09:55:00,
2013-10-05 06:00:00,67.1,65.3,30.13,SSW,204,0.0,9.0,94,0.00,,,0.00,Wunderground v.1.15,2013-10-05 10:00:00,
2013-10-05 06:05:00,67.2,65.4,30.13,SSW,204,0.0,9.0,94,0.00,,,0.00,Wunderground v.1.15,2013-10-05 10:05:00,
2013-10-05 06:10:00,67.2,65.4,30.13,SSW,204,0.0,9.0,94,0.00,,,0.00,Wunderground v.1.15,2013-10-05 10:10:00,
2013-10-05 06:20:00,67.4,65.3,30.13,SSW,204,0.0,9.0,93,0.00,,,0.00,Wunderground v.1.15,2013-10-05 10:20:00,
2013-10-05 06:25:00,67.3,65.2,30.13,SSW,204,0.0,9.0,93,0.00,,,0.00,Wunderground v.1.15,2013-10-05 10:25:00,
2013-10-05 06:30:00,67.3,65.2,30.13,South,184,0.0,9.0,93,0.00,,,0.00,Wunderground v.1.15,2013-10-05 10:30:00,
2013-10-05 06:35:00,67.3,65.2,30.13,SW,221,0.0,9.0,93,0.00,,,0.00,Wunderground v.1.15,2013-10-05 10:35:00,
2013-10-05 06:45:00,67.0,64.9,30.13,SW,214,0.0,9.0,93,0.00,,,0.00,Wunderground v.1.15,2013-10-05 10:45:00,
2013-10-05 06:55:00,66.8,65.0,30.13,SSW,205,0.0,9.0,94,0.00,,,0.00,Wunderground v.1.15,2013-10-05 10:55:00,
2013-10-05 07:00:00,66.7,64.9,30.13,South,190,0.0,9.0,94,0.00,,,0.00,Wunderground v.1.15,2013-10-05 11:00:00,
2013-10-05 07:05:00,66.7,64.9,30.13,South,184,0.0,9.0,94,0.00,,,0.00,Wunderground v.1.15,2013-10-05 11:05:00,
2013-10-05 07:10:00,66.6,64.8,30.13,SSW,192,0.0,9.0,94,0.00,,,0.00,Wunderground v.1.15,2013-10-05 11:10:00,
2013-10-05 07:15:00,66.6,64.8,30.13,SSW,208,0.0,9.0,94,0.00,,,0.00,Wunderground v.1.15,2013-10-05 11:15:00,
2013-10-05 07:20:00,66.7,64.9,30.13,SW,236,0.0,9.0,94,0.00,,,0.00,Wunderground v.1.15,2013-10-05 11:20:00,
2013-10-05 07:25:00,66.8,65.0,30.13,SSW,197,0.0,9.0,94,0.00,,,0.00,Wunderground v.1.15,2013-10-05 11:25:00,
2013-10-05 07:30:00,66.8,65.0,30.13,SW,214,0.0,9.0,94,0.00,,,0.00,Wunderground v.1.15,2013-10-05 11:30:00,
2013-10-05 07:35:00,66.8,65.0,30.13,SSW,208,0.0,9.0,94,0.00,,,0.00,Wunderground v.1.15,2013-10-05 11:35:00,
2013-10-05 07:40:00,66.8,65.0,30.13,SW,220,0.0,9.0,94,0.00,,,0.00,Wunderground v.1.15,2013-10-05 11:40:00,
2013-10-05 07:45:00,66.8,65.0,30.13,SW,215,0.0,9.0,94,0.00,,,0.00,Wunderground v.1.15,2013-10-05 11:45:00,
2013-10-05 07:50:00,66.8,65.0,30.13,WSW,242,0.0,9.0,94,0.00,,,0.00,Wunderground v.1.15,2013-10-05 11:50:00,
2013-10-05 07:55:00,66.7,64.9,30.14,South,188,0.0,9.0,94,0.00,,,0.00,Wunderground v.1.15,2013-10-05 11:55:00,
2013-10-05 08:00:00,66.6,64.8,30.14,SSW,210,0.0,9.0,94,0.00,,,0.00,Wunderground v.1.15,2013-10-05 12:00:00,
2013-10-05 08:05:00,66.5,65.0,30.13,SW,229,0.0,9.0,95,0.00,,,0.00,Wunderground v.1.15,2013-10-05 12:05:00,
2013-10-05 08:10:00,66.6,65.1,30.13,SW,219,1.0,1.0,95,0.00,,,0.00,Wunderground v.1.15,2013-10-05 12:10:00,
2013-10-05 08:15:00,66.7,65.2,30.13,SSW,202,1.0,9.0,95,0.00,,,0.00,Wunderground v.1.15,2013-10-05 12:15:00,
2013-10-05 08:20:00,66.7,65.2,30.13,South,191,1.0,1.0,95,0.00,,,0.00,Wunderground v.1.15,2013-10-05 12:20:00,
2013-10-05 08:25:00,66.8,65.3,30.13,SW,222,0.0,9.0,95,0.00,,,0.00,Wunderground v.1.15,2013-10-05 12:25:00,
2013-10-05 08:30:00,66.8,65.3,30.13,SSW,200,0.0,9.0,95,0.00,,,0.00,Wunderground v.1.15,2013-10-05 12:30:00,
2013-10-05 08:40:00,67.0,65.2,30.13,SSW,192,0.0,9.0,94,0.00,,,0.00,Wunderground v.1.15,2013-10-05 12:40:00,
2013-10-05 08:45:00,67.0,65.2,30.13,SSW,199,0.0,9.0,94,0.00,,,0.00,Wunderground v.1.15,2013-10-05 12:45:00,
2013-10-05 08:50:00,66.9,65.1,30.13,SSW,213,0.0,9.0,94,0.00,,,0.00,Wunderground v.1.15,2013-10-05 12:50:00,
2013-10-05 08:55:00,66.8,65.3,30.13,SSW,209,0.0,9.0,95,0.00,,,0.00,Wunderground v.1.15,2013-10-05 12:55:00,
2013-10-05 09:00:00,66.8,65.3,30.13,SSW,206,0.0,9.0,95,0.00,,,0.00,Wunderground v.1.15,2013-10-05 13:00:00,
2013-10-05 09:05:00,67.0,65.5,30.13,SSW,206,0.0,9.0,95,0.00,,,0.00,Wunderground v.1.15,2013-10-05 13:05:00,
2013-10-05 09:15:00,68.0,66.2,30.13,WSW,252,1.0,9.0,94,0.00,,,0.00,Wunderground v.1.15,2013-10-05 13:15:00,
2013-10-05 09:20:00,68.8,67.0,30.13,SSW,205,1.0,1.0,94,0.00,,,0.00,Wunderground v.1.15,2013-10-05 13:20:00,
2013-10-05 09:25:00,69.4,67.3,30.14,SW,233,1.0,9.0,93,0.00,,,0.00,Wunderground v.1.15,2013-10-05 13:25:00,
2013-10-05 09:30:00,70.0,67.3,30.14,SW,230,1.0,9.0,91,0.00,,,0.00,Wunderground v.1.15,2013-10-05 13:30:00,
2013-10-05 09:35:00,70.6,67.8,30.14,SW,219,0.0,9.0,91,0.00,,,0.00,Wunderground v.1.15,2013-10-05 13:35:00,
2013-10-05 09:40:00,71.0,67.3,30.14,WSW,255,1.0,1.0,88,0.00,,,0.00,Wunderground v.1.15,2013-10-05 13:40:00,
2013-10-05 09:45:00,71.1,67.4,30.14,SW,217,1.0,9.0,88,0.00,,,0.00,Wunderground v.1.15,2013-10-05 13:45:00,
2013-10-05 09:50:00,71.0,67.3,30.14,SW,216,1.0,1.0,88,0.00,,,0.00,Wunderground v.1.15,2013-10-05 13:50:00,
2013-10-05 09:55:00,70.8,66.7,30.14,WSW,246,1.0,9.0,87,0.00,,,0.00,Wunderground v.1.15,2013-10-05 13:55:00,
2013-10-05 10:00:00,70.8,67.1,30.14,SW,217,1.0,9.0,88,0.00,,,0.00,Wunderground v.1.15,2013-10-05 14:00:00,
2013-10-05 10:05:00,70.9,67.2,30.14,SW,218,1.0,9.0,88,0.00,,,0.00,Wunderground v.1.15,2013-10-05 14:05:00,
2013-10-05 10:15:00,71.2,67.5,30.14,West,260,0.0,9.0,88,0.00,,,0.00,Wunderground v.1.15,2013-10-05 14:15:00,
2013-10-05 10:20:00,71.6,67.9,30.13,WSW,244,0.0,9.0,88,0.00,,,0.00,Wunderground v.1.15,2013-10-05 14:20:00,
2013-10-05 10:25:00,72.3,68.2,30.13,WSW,247,1.0,9.0,87,0.00,,,0.00,Wunderground v.1.15,2013-10-05 14:25:00,
2013-10-05 10:30:00,72.7,67.9,30.14,SSW,198,1.0,9.0,85,0.00,,,0.00,Wunderground v.1.15,2013-10-05 14:30:00,
2013-10-05 10:40:00,73.2,68.8,30.14,SW,236,1.0,1.0,86,0.00,,,0.00,Wunderground v.1.15,2013-10-05 14:40:00,
2013-10-05 10:45:00,73.4,67.9,30.14,South,189,2.0,2.0,83,0.00,,,0.00,Wunderground v.1.15,2013-10-05 14:45:00,
2013-10-05 10:50:00,73.7,68.2,30.14,South,182,1.0,9.0,83,0.00,,,0.00,Wunderground v.1.15,2013-10-05 14:50:00,
2013-10-05 10:55:00,74.0,68.2,30.14,WSW,239,1.0,9.0,82,0.00,,,0.00,Wunderground v.1.15,2013-10-05 14:55:00,
2013-10-05 11:00:00,74.4,68.9,30.14,SW,229,1.0,1.0,83,0.00,,,0.00,Wunderground v.1.15,2013-10-05 15:00:00,
2013-10-05 11:05:00,74.8,68.9,30.13,SW,220,0.0,9.0,82,0.00,,,0.00,Wunderground v.1.15,2013-10-05 15:05:00,
2013-10-05 11:15:00,75.9,70.0,30.13,West,261,2.0,9.0,82,0.00,,,0.00,Wunderground v.1.15,2013-10-05 15:15:00,
2013-10-05 11:25:00,76.7,69.7,30.13,West,263,2.0,9.0,79,0.00,,,0.00,Wunderground v.1.15,2013-10-05 15:25:00,
2013-10-05 11:30:00,76.9,69.9,30.13,West,260,2.0,2.0,79,0.00,,,0.00,Wunderground v.1.15,2013-10-05 15:30:00,
2013-10-05 11:35:00,77.4,70.0,30.13,WNW,298,1.0,9.0,78,0.00,,,0.00,Wunderground v.1.15,2013-10-05 15:35:00,
2013-10-05 11:40:00,78.2,70.0,30.13,WNW,282,1.0,1.0,76,0.00,,,0.00,Wunderground v.1.15,2013-10-05 15:40:00,
2013-10-05 11:45:00,78.3,69.7,30.13,SSW,212,1.0,3.0,75,0.00,,,0.00,Wunderground v.1.15,2013-10-05 15:45:00,
2013-10-05 11:50:00,78.3,70.5,30.13,SW,231,1.0,9.0,77,0.00,,,0.00,Wunderground v.1.15,2013-10-05 15:50:00,
2013-10-05 11:55:00,78.5,69.9,30.12,South,184,2.0,9.0,75,0.00,,,0.00,Wunderground v.1.15,2013-10-05 15:55:00,
2013-10-05 12:00:00,79.0,70.4,30.12,West,275,1.0,1.0,75,0.00,,,0.00,Wunderground v.1.15,2013-10-05 16:00:00,
2013-10-05 12:10:00,79.2,69.8,30.12,WNW,284,1.0,1.0,73,0.00,,,0.00,Wunderground v.1.15,2013-10-05 16:10:00,
2013-10-05 12:15:00,79.3,69.9,30.12,WSW,239,1.0,9.0,73,0.00,,,0.00,Wunderground v.1.15,2013-10-05 16:15:00,
2013-10-05 12:20:00,79.6,70.2,30.11,SW,216,1.0,9.0,73,0.00,,,0.00,Wunderground v.1.15,2013-10-05 16:20:00,
2013-10-05 12:25:00,79.8,69.6,30.11,SSW,206,2.0,9.0,71,0.00,,,0.00,Wunderground v.1.15,2013-10-05 16:25:00,
2013-10-05 12:30:00,79.9,70.9,30.11,SW,222,2.0,9.0,74,0.00,,,0.00,Wunderground v.1.15,2013-10-05 16:30:00,
2013-10-05 12:35:00,80.1,69.8,30.11,West,281,2.0,9.0,71,0.00,,,0.00,Wunderground v.1.15,2013-10-05 16:35:00,
2013-10-05 12:40:00,80.2,69.9,30.11,WNW,295,3.0,3.0,71,0.00,,,0.00,Wunderground v.1.15,2013-10-05 16:40:00,
2013-10-05 12:45:00,80.2,69.9,30.11,West,262,2.0,9.0,71,0.00,,,0.00,Wunderground v.1.15,2013-10-05 16:45:00,
2013-10-05 12:50:00,80.4,71.3,30.11,West,280,1.0,1.0,74,0.00,,,0.00,Wunderground v.1.15,2013-10-05 16:50:00,
2013-10-05 12:55:00,81.1,70.8,30.11,WSW,238,1.0,9.0,71,0.00,,,0.00,Wunderground v.1.15,2013-10-05 16:55:00,
2013-10-05 13:00:00,80.9,70.6,30.10,WNW,291,1.0,1.0,71,0.00,,,0.00,Wunderground v.1.15,2013-10-05 17:00:00,
2013-10-05 13:05:00,81.0,71.1,30.10,SW,234,2.0,4.0,72,0.00,,,0.00,Wunderground v.1.15,2013-10-05 17:05:00,
2013-10-05 13:10:00,81.3,70.2,30.10,SSW,199,3.0,3.0,69,0.00,,,0.00,Wunderground v.1.15,2013-10-05 17:10:00,
2013-10-05 13:15:00,81.4,69.8,30.10,SW,226,4.0,4.0,68,0.00,,,0.00,Wunderground v.1.15,2013-10-05 17:15:00,
2013-10-05 13:20:00,81.5,71.2,30.10,West,281,3.0,9.0,71,0.00,,,0.00,Wunderground v.1.15,2013-10-05 17:20:00,
2013-10-05 13:25:00,81.7,70.5,30.10,WNW,288,1.0,9.0,69,0.00,,,0.00,Wunderground v.1.15,2013-10-05 17:25:00,
2013-10-05 13:30:00,81.5,69.5,30.09,SW,229,1.0,9.0,67,0.00,,,0.00,Wunderground v.1.15,2013-10-05 17:30:00,
2013-10-05 13:35:00,81.4,71.1,30.09,WNW,290,1.0,9.0,71,0.00,,,0.00,Wunderground v.1.15,2013-10-05 17:35:00,
2013-10-05 13:45:00,81.5,69.9,30.09,WNW,300,1.0,9.0,68,0.00,,,0.00,Wunderground v.1.15,2013-10-05 17:45:00,
2013-10-05 13:50:00,81.1,69.5,30.08,NNW,327,1.0,1.0,68,0.00,,,0.00,Wunderground v.1.15,2013-10-05 17:50:00,
2013-10-05 13:55:00,81.4,70.7,30.08,NW,326,0.0,9.0,70,0.00,,,0.00,Wunderground v.1.15,2013-10-05 17:55:00,
2013-10-05 14:00:00,82.3,71.1,30.08,NW,322,1.0,1.0,69,0.00,,,0.00,Wunderground v.1.15,2013-10-05 18:00:00,
2013-10-05 14:05:00,82.9,70.4,30.08,SW,217,1.0,5.0,66,0.00,,,0.00,Wunderground v.1.15,2013-10-05 18:05:00,
2013-10-05 14:10:00,83.1,70.6,30.07,WNW,296,2.0,9.0,66,0.00,,,0.00,Wunderground v.1.15,2013-10-05 18:10:00,
2013-10-05 14:15:00,83.3,69.4,30.07,West,263,3.0,9.0,63,0.00,,,0.00,Wunderground v.1.15,2013-10-05 18:15:00,
2013-10-05 14:20:00,83.0,69.1,30.07,SW,234,3.0,3.0,63,0.00,,,0.00,Wunderground v.1.15,2013-10-05 18:20:00,
2013-10-05 14:25:00,82.3,69.4,30.07,SW,235,3.0,9.0,65,0.00,,,0.00,Wunderground v.1.15,2013-10-05 18:25:00,
2013-10-05 14:35:00,83.4,69.9,30.07,SW,215,2.0,9.0,64,0.00,,,0.00,Wunderground v.1.15,2013-10-05 18:35:00,
2013-10-05 14:40:00,83.6,70.1,30.06,WNW,294,2.0,2.0,64,0.00,,,0.00,Wunderground v.1.15,2013-10-05 18:40:00,
2013-10-05 14:45:00,83.9,70.0,30.06,SSW,213,2.0,9.0,63,0.00,,,0.00,Wunderground v.1.15,2013-10-05 18:45:00,
2013-10-05 14:50:00,83.4,69.0,30.06,SW,221,4.0,9.0,62,0.00,,,0.00,Wunderground v.1.15,2013-10-05 18:50:00,
2013-10-05 14:55:00,82.6,69.2,30.06,SW,235,4.0,9.0,64,0.00,,,0.00,Wunderground v.1.15,2013-10-05 18:55:00,
2013-10-05 15:00:00,82.5,70.0,30.05,WSW,243,2.0,2.0,66,0.00,,,0.00,Wunderground v.1.15,2013-10-05 19:00:00,
2013-10-05 15:05:00,82.4,69.0,30.05,SW,215,2.0,4.0,64,0.00,,,0.00,Wunderground v.1.15,2013-10-05 19:05:00,
2013-10-05 15:10:00,82.9,69.0,30.05,SSW,202,2.0,2.0,63,0.00,,,0.00,Wunderground v.1.15,2013-10-05 19:10:00,
2013-10-05 15:15:00,83.1,68.7,30.05,WSW,250,4.0,4.0,62,0.00,,,0.00,Wunderground v.1.15,2013-10-05 19:15:00,
2013-10-05 15:20:00,82.7,69.3,30.04,WSW,246,6.0,6.0,64,0.00,,,0.00,Wunderground v.1.15,2013-10-05 19:20:00,
2013-10-05 15:25:00,82.7,67.9,30.04,SW,236,4.0,9.0,61,0.00,,,0.00,Wunderground v.1.15,2013-10-05 19:25:00,
2013-10-05 15:30:00,82.9,68.5,30.04,SSE,161,3.0,3.0,62,0.00,,,0.00,Wunderground v.1.15,2013-10-05 19:30:00,
2013-10-05 15:35:00,83.9,71.3,30.03,WSW,248,3.0,9.0,66,0.00,,,0.00,Wunderground v.1.15,2013-10-05 19:35:00,
2013-10-05 15:40:00,84.4,69.5,30.03,WSW,242,3.0,9.0,61,0.00,,,0.00,Wunderground v.1.15,2013-10-05 19:40:00,
2013-10-05 15:45:00,84.9,69.5,30.02,SSW,193,4.0,9.0,60,0.00,,,0.00,Wunderground v.1.15,2013-10-05 19:45:00,
2013-10-05 15:50:00,84.8,69.9,30.02,SW,217,5.0,5.0,61,0.00,,,0.00,Wunderground v.1.15,2013-10-05 19:50:00,
2013-10-05 15:55:00,84.2,69.8,30.02,SSW,212,5.0,9.0,62,0.00,,,0.00,Wunderground v.1.15,2013-10-05 19:55:00,
2013-10-05 16:00:00,83.6,69.2,30.02,SSW,192,4.0,4.0,62,0.00,,,0.00,Wunderground v.1.15,2013-10-05 20:00:00,
2013-10-05 16:10:00,83.9,69.5,30.02,SW,232,3.0,9.0,62,0.00,,,0.00,Wunderground v.1.15,2013-10-05 20:10:00,
2013-10-05 16:15:00,84.1,69.7,30.02,SW,214,4.0,9.0,62,0.00,,,0.00,Wunderground v.1.15,2013-10-05 20:15:00,
2013-10-05 16:20:00,83.7,69.3,30.02,SW,229,5.0,5.0,62,0.00,,,0.00,Wunderground v.1.15,2013-10-05 20:20:00,
2013-10-05 16:25:00,83.7,68.8,30.02,South,182,4.0,9.0,61,0.00,,,0.00,Wunderground v.1.15,2013-10-05 20:25:00,
2013-10-05 16:30:00,83.5,70.0,30.02,South,180,2.0,9.0,64,0.00,,,0.00,Wunderground v.1.15,2013-10-05 20:30:00,
2013-10-05 16:40:00,83.1,69.2,30.01,South,182,2.0,9.0,63,0.00,,,0.00,Wunderground v.1.15,2013-10-05 20:40:00,
2013-10-05 16:45:00,82.7,69.3,30.02,South,182,3.0,9.0,64,0.00,,,0.00,Wunderground v.1.15,2013-10-05 20:45:00,
2013-10-05 16:50:00,82.5,69.1,30.01,SSW,207,3.0,9.0,64,0.00,,,0.00,Wunderground v.1.15,2013-10-05 20:50:00,
2013-10-05 16:55:00,82.3,68.4,30.01,WSW,248,4.0,9.0,63,0.00,,,0.00,Wunderground v.1.15,2013-10-05 20:55:00,
2013-10-05 17:00:00,82.2,68.3,30.01,WSW,237,4.0,10.0,63,0.00,,,0.00,Wunderground v.1.15,2013-10-05 21:00:00,
2013-10-05 17:05:00,82.0,68.2,30.01,West,273,5.0,10.0,63,0.00,,,0.00,Wunderground v.1.15,2013-10-05 21:05:00,
2013-10-05 17:15:00,81.9,67.6,30.01,WSW,242,5.0,9.0,62,0.00,,,0.00,Wunderground v.1.15,2013-10-05 21:15:00,
2013-10-05 17:20:00,81.9,68.1,30.02,WSW,246,4.0,4.0,63,0.00,,,0.00,Wunderground v.1.15,2013-10-05 21:20:00,
2013-10-05 17:25:00,81.6,67.8,30.02,West,279,3.0,9.0,63,0.00,,,0.00,Wunderground v.1.15,2013-10-05 21:25:00,
2013-10-05 17:30:00,81.4,68.5,30.03,West,281,1.0,1.0,65,0.00,,,0.00,Wunderground v.1.15,2013-10-05 21:30:00,
2013-10-05 17:35:00,80.0,69.7,30.03,NNW,340,2.0,8.0,71,0.00,,,0.00,Wunderground v.1.15,2013-10-05 21:35:00,
2013-10-05 17:40:00,76.6,69.6,30.04,North,10,5.0,9.0,79,0.00,,,0.00,Wunderground v.1.15,2013-10-05 21:40:00,
2013-10-05 17:45:00,74.5,69.0,30.05,NNE,24,6.0,9.0,83,0.00,,,0.00,Wunderground v.1.15,2013-10-05 21:45:00,
2013-10-05 17:50:00,72.9,68.1,30.05,NNE,12,8.0,11.0,85,0.00,,,0.00,Wunderground v.1.15,2013-10-05 21:50:00,
2013-10-05 17:55:00,72.1,67.7,30.05,NNW,344,7.0,11.0,86,0.00,,,0.00,Wunderground v.1.15,2013-10-05 21:55:00,
2013-10-05 18:00:00,71.7,67.3,30.05,NNW,348,5.0,5.0,86,0.00,,,0.00,Wunderground v.1.15,2013-10-05 22:00:00,
2013-10-05 18:05:00,71.3,67.2,30.05,NNE,30,3.0,9.0,87,0.00,,,0.00,Wunderground v.1.15,2013-10-05 22:05:00,
2013-10-05 18:10:00,70.9,67.2,30.06,NW,319,4.0,4.0,88,0.00,,,0.00,Wunderground v.1.15,2013-10-05 22:10:00,
2013-10-05 18:15:00,70.6,67.2,30.05,NNE,28,5.0,6.0,89,0.00,,,0.00,Wunderground v.1.15,2013-10-05 22:15:00,
2013-10-05 18:20:00,70.2,67.1,30.05,NE,53,5.0,9.0,90,0.00,,,0.00,Wunderground v.1.15,2013-10-05 22:20:00,
2013-10-05 18:25:00,70.0,66.9,30.05,North,360,4.0,9.0,90,0.00,,,0.00,Wunderground v.1.15,2013-10-05 22:25:00,
2013-10-05 18:30:00,69.8,66.7,30.06,ENE,59,3.0,9.0,90,0.00,,,0.00,Wunderground v.1.15,2013-10-05 22:30:00,
2013-10-05 18:35:00,69.7,66.6,30.06,NE,34,3.0,9.0,90,0.00,,,0.00,Wunderground v.1.15,2013-10-05 22:35:00,
2013-10-05 18:40:00,69.7,67.0,30.05,NNE,16,3.0,3.0,91,0.00,,,0.00,Wunderground v.1.15,2013-10-05 22:40:00,
2013-10-05 18:45:00,69.6,66.9,30.05,North,355,2.0,9.0,91,0.00,,,0.00,Wunderground v.1.15,2013-10-05 22:45:00,
2013-10-05 18:50:00,69.5,67.1,30.05,North,355,1.0,1.0,92,0.00,,,0.01,Wunderground v.1.15,2013-10-05 22:50:00,
2013-10-05 18:55:00,69.4,67.3,30.05,NE,54,1.0,9.0,93,0.14,,,0.02,Wunderground v.1.15,2013-10-05 22:55:00,
2013-10-05 19:00:00,69.1,67.3,30.05,ENE,58,1.0,1.0,94,0.06,,,0.02,Wunderground v.1.15,2013-10-05 23:00:00,
2013-10-05 19:05:00,68.9,67.1,30.05,East,100,0.0,9.0,94,0.04,,,0.02,Wunderground v.1.15,2013-10-05 23:05:00,
2013-10-05 19:10:00,68.7,67.2,30.05,East,96,0.0,9.0,95,0.00,,,0.02,Wunderground v.1.15,2013-10-05 23:10:00,
2013-10-05 19:20:00,68.5,67.3,30.05,ESE,106,0.0,9.0,96,0.00,,,0.02,Wunderground v.1.15,2013-10-05 23:20:00,
2013-10-05 19:25:00,68.4,67.2,30.04,ENE,76,0.0,9.0,96,0.00,,,0.02,Wunderground v.1.15,2013-10-05 23:25:00,
2013-10-05 19:30:00,68.4,67.2,30.05,ENE,64,0.0,9.0,96,0.00,,,0.02,Wunderground v.1.15,2013-10-05 23:30:00,
2013-10-05 19:35:00,68.4,67.2,30.05,ENE,65,0.0,9.0,96,0.00,,,0.02,Wunderground v.1.15,2013-10-05 23:35:00,
2013-10-05 19:40:00,68.4,67.2,30.05,ENE,65,0.0,9.0,96,0.00,,,0.02,Wunderground v.1.15,2013-10-05 23:40:00,
2013-10-05 19:45:00,68.4,67.2,30.05,ENE,65,0.0,9.0,96,0.00,,,0.02,Wunderground v.1.15,2013-10-05 23:45:00,
2013-10-05 19:50:00,68.3,67.1,30.05,ENE,65,0.0,9.0,96,0.00,,,0.02,Wunderground v.1.15,2013-10-05 23:50:00,
2013-10-05 19:55:00,68.2,67.0,30.05,ENE,65,0.0,9.0,96,0.00,,,0.02,Wunderground v.1.15,2013-10-05 23:55:00,
2013-10-05 20:00:00,68.1,66.9,30.05,ENE,65,0.0,9.0,96,0.00,,,0.02,Wunderground v.1.15,2013-10-06 00:00:00,
2013-10-05 20:05:00,68.1,66.9,30.05,ENE,65,0.0,9.0,96,0.00,,,0.02,Wunderground v.1.15,2013-10-06 00:05:00,
2013-10-05 20:10:00,68.0,66.8,30.05,ENE,65,0.0,9.0,96,0.00,,,0.02,Wunderground v.1.15,2013-10-06 00:10:00,
2013-10-05 20:15:00,67.9,66.7,30.05,ENE,65,0.0,9.0,96,0.00,,,0.02,Wunderground v.1.15,2013-10-06 00:15:00,
2013-10-05 20:20:00,67.9,67.0,30.05,ENE,65,0.0,9.0,97,0.00,,,0.02,Wunderground v.1.15,2013-10-06 00:20:00,
2013-10-05 20:25:00,67.8,66.9,30.05,ENE,65,0.0,9.0,97,0.00,,,0.02,Wunderground v.1.15,2013-10-06 00:25:00,
2013-10-05 20:30:00,67.7,66.8,30.05,ENE,65,0.0,9.0,97,0.00,,,0.02,Wunderground v.1.15,2013-10-06 00:30:00,
2013-10-05 20:40:00,67.6,66.7,30.04,ENE,65,0.0,9.0,97,0.00,,,0.02,Wunderground v.1.15,2013-10-06 00:40:00,
2013-10-05 20:45:00,67.5,66.6,30.04,ENE,65,0.0,9.0,97,0.00,,,0.02,Wunderground v.1.15,2013-10-06 00:45:00,
2013-10-05 20:50:00,67.5,66.6,30.04,ENE,65,0.0,9.0,97,0.00,,,0.02,Wunderground v.1.15,2013-10-06 00:50:00,
2013-10-05 20:55:00,67.5,66.6,30.04,ENE,65,0.0,9.0,97,0.00,,,0.02,Wunderground v.1.15,2013-10-06 00:55:00,
2013-10-05 21:00:00,67.4,66.5,30.04,ENE,65,0.0,9.0,97,0.00,,,0.02,Wunderground v.1.15,2013-10-06 01:00:00,
2013-10-05 21:05:00,67.4,66.5,30.04,ENE,65,0.0,9.0,97,0.00,,,0.02,Wunderground v.1.15,2013-10-06 01:05:00,
2013-10-05 21:10:00,67.3,66.4,30.03,ENE,65,0.0,9.0,97,0.00,,,0.02,Wunderground v.1.15,2013-10-06 01:10:00,
2013-10-05 21:15:00,67.3,66.4,30.03,ENE,65,0.0,9.0,97,0.00,,,0.02,Wunderground v.1.15,2013-10-06 01:15:00,
2013-10-05 21:20:00,67.4,66.5,30.03,ENE,65,0.0,9.0,97,0.00,,,0.02,Wunderground v.1.15,2013-10-06 01:20:00,
2013-10-05 21:25:00,67.3,66.4,30.03,ENE,65,0.0,9.0,97,0.00,,,0.02,Wunderground v.1.15,2013-10-06 01:25:00,
2013-10-05 21:30:00,67.3,66.4,30.03,ENE,65,0.0,9.0,97,0.00,,,0.02,Wunderground v.1.15,2013-10-06 01:30:00,
2013-10-05 21:35:00,67.3,66.4,30.03,ENE,65,0.0,9.0,97,0.00,,,0.02,Wunderground v.1.15,2013-10-06 01:35:00,
2013-10-05 21:40:00,67.3,66.4,30.03,ENE,65,0.0,9.0,97,0.00,,,0.02,Wunderground v.1.15,2013-10-06 01:40:00,
2013-10-05 21:45:00,67.2,66.3,30.03,ENE,65,0.0,9.0,97,0.00,,,0.02,Wunderground v.1.15,2013-10-06 01:45:00,
2013-10-05 21:50:00,67.0,66.1,30.03,ENE,65,0.0,9.0,97,0.00,,,0.02,Wunderground v.1.15,2013-10-06 01:50:00,
2013-10-05 22:00:00,66.8,65.9,30.03,ENE,65,0.0,9.0,97,0.00,,,0.02,Wunderground v.1.15,2013-10-06 02:00:00,
2013-10-05 22:05:00,66.7,65.8,30.03,ENE,65,0.0,9.0,97,0.00,,,0.02,Wunderground v.1.15,2013-10-06 02:05:00,
2013-10-05 22:10:00,66.8,66.2,30.02,ENE,65,0.0,9.0,98,0.00,,,0.02,Wunderground v.1.15,2013-10-06 02:10:00,
2013-10-05 22:15:00,66.8,66.2,30.02,ENE,65,0.0,9.0,98,0.00,,,0.02,Wunderground v.1.15,2013-10-06 02:15:00,
2013-10-05 22:20:00,66.7,65.8,30.02,ENE,65,0.0,9.0,97,0.00,,,0.02,Wunderground v.1.15,2013-10-06 02:20:00,
2013-10-05 22:25:00,66.5,65.6,30.02,ENE,65,0.0,9.0,97,0.00,,,0.02,Wunderground v.1.15,2013-10-06 02:25:00,
2013-10-05 22:30:00,66.5,65.9,30.01,ENE,65,0.0,9.0,98,0.00,,,0.02,Wunderground v.1.15,2013-10-06 02:30:00,
2013-10-05 22:35:00,66.4,65.5,30.01,ENE,65,0.0,9.0,97,0.00,,,0.02,Wunderground v.1.15,2013-10-06 02:35:00,
2013-10-05 22:45:00,66.2,65.3,30.01,ENE,65,0.0,9.0,97,0.00,,,0.02,Wunderground v.1.15,2013-10-06 02:45:00,
2013-10-05 22:55:00,66.0,65.4,30.01,ENE,65,0.0,9.0,98,0.00,,,0.02,Wunderground v.1.15,2013-10-06 02:55:00,
2013-10-05 23:00:00,66.0,65.4,30.01,ENE,65,0.0,9.0,98,0.00,,,0.02,Wunderground v.1.15,2013-10-06 03:00:00,
2013-10-05 23:05:00,66.0,65.4,30.01,ENE,65,0.0,9.0,98,0.00,,,0.02,Wunderground v.1.15,2013-10-06 03:05:00,
2013-10-05 23:10:00,65.9,65.3,30.01,ENE,65,0.0,9.0,98,0.00,,,0.02,Wunderground v.1.15,2013-10-06 03:10:00,
2013-10-05 23:15:00,65.9,65.3,30.01,ENE,65,0.0,9.0,98,0.00,,,0.02,Wunderground v.1.15,2013-10-06 03:15:00,
2013-10-05 23:20:00,65.9,65.3,30.01,ENE,65,0.0,9.0,98,0.00,,,0.02,Wunderground v.1.15,2013-10-06 03:20:00,
2013-10-05 23:30:00,66.0,65.4,30.01,ENE,65,0.0,9.0,98,0.00,,,0.02,Wunderground v.1.15,2013-10-06 03:30:00,
2013-10-05 23:35:00,66.1,65.5,30.01,ENE,65,0.0,9.0,98,0.00,,,0.02,Wunderground v.1.15,2013-10-06 03:35:00,
2013-10-05 23:40:00,66.0,65.4,30.01,ENE,65,0.0,9.0,98,0.00,,,0.02,Wunderground v.1.15,2013-10-06 03:40:00,
2013-10-05 23:45:00,66.0,65.4,30.01,ENE,65,0.0,9.0,98,0.00,,,0.02,Wunderground v.1.15,2013-10-06 03:45:00,
2013-10-05 23:50:00,66.0,65.4,30.00,ENE,65,0.0,9.0,98,0.00,,,0.02,Wunderground v.1.15,2013-10-06 03:50:00,
2013-10-05 23:55:00,65.9,65.3,30.00,ENE,65,0.0,9.0,98,0.00,,,0.02,Wunderground v.1.15,2013-10-06 03:55:00,